Location: Isle of Man Observatory
(54.1776°N, 4.6264°W)
Time: 15:22:32
(UTC+02:00)

ARIANE 6 FM1 Upper Stage - Pass Details

Date: 25 April 2026
Orbit: 526 x 601 km, 62.0° (Epoch: 19 May)

Event Time Altitude Azimuth Distance (km) Brightness Sun altitude
Rises 01:09:02 0° 306° (NW) 2,680 7.0 -21.2°
Reaches altitude 10° 01:11:15 10° 302° (WNW) 1,782 5.9 -21.3°
Enters shadow 01:14:58 54° 238° (WSW) 644 2.8 -21.4°
